Regional Weather Roundup
Issued by NWS Goodland, KS

Home | Current Version | Previous Version | Graphics & Text | Print | Product List | Glossary On
Versions: 1 2 3 4 5 6 7 8 9 10 11 12 13 14 15 16 17 18 19 20 21 22 23 24 25 26 27 28 29 30 31 32 33 34 35 36 37 38 39 40 41 42 43 44 45 46 47 48 49 50
447
ASUS43 KGLD 181008
RWRGLD

GOODLAND FORECAST AREA HOURLY WEATHER ROUNDUP
NATIONAL WEATHER SERVICE GOODLAND KS
300 AM MST MON DEC 18 2017

...OFFICIAL OBSERVATIONS...

CITY           SKY/WX    TMP DP  RH WIND       PRES   REMARKS
GOODLAND KS    CLOUDY    24  21  88 W9        29.99S
HILL CITY KS   CLOUDY    26  22  84 W10       30.02S WCI  16
IMPERIAL NEB   CLOUDY    25  21  85 W8        29.97S
MCCOOK NEB     CLOUDY    22  20  92 W14       29.99S WCI   9
AKRON CO       CLOUDY    22  17  81 W10       29.96S WCI  11
BURLINGTON CO  CLOUDY    24  21  88 W12       30.00R WCI  13
LIMON CO       CLOUDY     5   3  91 NW5       29.98R
$$

...UNOFFICIAL OBSERVATIONS...

CITY           SKY/WX    TMP DP  RH WIND       PRES   REMARKS
COLBY KS       CLEAR     21  21 100 W8        30.02S
LENORA KS        N/A     28  32 100 SW7         N/A
NORTON KS      CLEAR     23  18  80 SW8       29.99
SHARON SPRINGS   N/A     19  16  87 SW8         N/A
TRIBUNE KS     CLOUDY    18  16  93 NW7       30.03R
TRENTON NEB      N/A     20  32 100 CALM        N/A
KIT CARSON CO    N/A     14  11  87 CALM        N/A
YUMA CO        FAIR      21  18  86 SW8       29.97S
$$




USA.gov is the U.S. government's official web portal to all federal, state and local government web resources and services.